Погода Остров Врангеля

Погода Остров Врангеля : погода сейчас, прогноз погоды и архив. Всё, что Вы хотите узнать о погоде Остров Врангеля!

Поиск расширенной информации на нашем сайте:

Другие новости

Новости СМИ2

Главная страница сайта

Новости сайта

03.07.2017

Напоминаем, что на нашем специализированном сайте Метеоцентр.Азия вы можете получить высокодетализированные автоматические прогнозы погоды по пунктам России, СНГ и мира в авиационном формате (включающие направление и скорость ветра, видимость, явления погоды, количество и форму облачности, нижнюю и верхнюю границу облачности).


Погода Остров Врангеля - сегодня

Время (UTC), дата Ветер
(°,м/с) 
Видим.   Явления Облачность Т
(°С)
Тd
(°С)
f(%) Тe
(°С)
Pmin
(гПа)
dP
(гПа)
Po
(мм)
O2
(г/м3)
Тmin Tmax R s Состояние
почвы
03 16.04.18 040 (СВ) 8-11{12}  20000 м    9/1 600 м средняя, верхняя 
[Sc|Ac trans|Ci fib]
-5.1 -8.3 78 -10  1011.7  -2  757  312           
06 16.04.18 050 (СВ) 8-11{12}  20000 м  позёмок  10/4 600 м средняя, верхняя 
[Sc|Ac trans|Cs]
-4.3 -7.6 78 -9  1010.7  -1  756  310    -4.3       
09 16.04.18 060 (СВ) 7{11}  20000 м    10/0 средняя 
[Ac und]
-4.1 -8 74 -9  1010.2  -0.5  756  310           
15 16.04.18 060 (СВ) 6{09}  4000 м  слаб. снег  10/8 300 м средняя 
[Sc|As op]
-5.1 -6.2 92 -10  1009.6  -0.2  755  311           
18 16.04.18 060 (СВ) 4{08}  20000 м  {снег}  10/10 300 м 
[Sc]
-3.8 -4.7 93 -7  1009.9  0.3  755  309  -5.8    0.3  100  неравномерный
сухой снег
100% 
00 17.04.18 070 (В) 4{06}  20000 м    10/10 300 м 
[Sc]
-1.9 -2.7 94 -5  1010.4  0.3  756  307           
03 17.04.18 080 (В) 6{07}  20000 м    10/10 300 м 
[Sc]
-1.8 -2.9 92 -6  1010.4  756  307           
18 17.04.18 030 (СВ) 9-11{12}  20000 м  позёмок  8/3 600 м средняя 
[Sc|Ac trans]
-10 -13.3 77 -17  1010  0.3  755  317  -11.3      100  неравномерный
мокрый или
старый снег
100% 
21 17.04.18 030 (СВ) 6{12}  20000 м    9/4 600 м средняя, верхняя 
[Sc|Ac trans|Ci fib]
-8.1 -11.9 74 -13  1010.7  0.7  756  315           
03 18.04.18 040 (СВ) 7{10}  20000 м    9/5 600 м средняя 
[Sc|Ac trans]
-7.1 -9.8 81 -12  1011.6  0.2  757  314           
06 18.04.18 030 (СВ) 9-11{12}  20000 м  позёмок  9/4 600 м средняя 
[Sc|Ac trans]
-7.7 -10.5 80 -14  1012  0.4  757  315    -6.4       
18 18.04.18 030 (СВ) 8{10}  20000 м  позёмок  8/3 600 м средняя, верхняя 
[Sc|Ac trans|Ci fib]
-11.4 -13.8 82 -18  1014.6  0.3  759  320  -12.5      100  неравномерный
мокрый или
старый снег
100% 
21 18.04.18 050 (СВ) 7{09}  20000 м    6/0 средняя, верхняя 
[Ac trans|Ci fib]
-10.3 -13.1 80 -16  1015.6  760  319           
03 19.04.18 040 (СВ) 6{10}  20000 м    4/0 верхняя 
[Ci fib]
-7.2 -10.3 78 -12  1016.1  0.3  760  316           
18 19.04.18 030 (СВ) 8-10{12}  20000 м  позёмок  ясно 
-10.8 -15.9 66 -17  1020.3  0.7  763  322  -11.5      100  неравномерный
мокрый или
старый снег
100% 
21 19.04.18 020 (С) 6{12}  20000 м    1/0 верхняя 
[Ci fib]
-9.3 -15.4 61 -15  1021.6  1.3  764  320           
03 20.04.18 020 (С) 5{10}  20000 м    1/0 верхняя 
[Ci fib]
-7.5 -11.4 74 -12  1022.2  0.3  765  318           
09 20.04.18 040 (СВ) 4{08}  20000 м    4/0 верхняя 
[Ci fib]
-9.4 -14.4 67 -13  1024.3  1.3  766  321           
12 20.04.18 030 (СВ) 3{06}  20000 м    3/0 верхняя 
[Ci fib]
-11 -14.9 73 -14  1024.8  0.5  767  323           
15 20.04.18 350 (С) 2{04}  20000 м    3/0 верхняя 
[Ci fib]
-11.6 -15.3 74 -14  1025.1  0.3  767  324           
18 20.04.18 360 (С) 3{05}  20000 м    3/0 верхняя 
[Ci fib]
-10.4 -14.6 71 -13  1025  -0.1  767  322  -13.1      100  неравномерный
мокрый или
старый снег
100% 
21 20.04.18 020 (С) 4{06}  20000 м    4/0 средняя, верхняя 
[Ac trans|Ci fib]
-6.3 -11.6 66 -10  1024.9  767  317           
00 21.04.18 060 (СВ) 5{08}  20000 м    4/0 верхняя 
[Ci fib]
-6.2 -13.4 57 -10  1025.1  0.2  767  317           
03 21.04.18 080 (В) 4{07}  20000 м    1/0 верхняя 
[Ci fib]
-8.3 -11.6 77 -12  1025.7  0.5  767  320           
09 21.04.18 080 (В) 1{03}  20000 м    10/0 средняя 
[Ac und]
-12.1   1026  0.6  767             
Время (UTC), дата Ветер
(°,м/с) 
Видим.   Явления Облачность Т
(°С)
Тd
(°С)
f(%) Тe
(°С)
Pmin
(гПа)
dP
(гПа)
Po
(мм)
O2
(г/м3)
Тmin Tmax R s Состояние
почвы

Для получения пояснительной информации подведите курсор к названию столбца.

ПОГОДА Остров Врангеля - архив

Всё, что Вы хотите узнать о погоде Остров Врангеля - удобно и подробно!

Выберите нужную дату (начиная с 1 января 2015* года) и нажмите кнопку "Найти".
Будут отображены архивные сводки погоды по пункту Остров Врангеля, начиная с указанной даты.


Отображать данные в формате CSV (для использования в таблицах Excel)


Внимание! Наш архив погоды предназначен исключительно для личного некоммерческого использования в познавательных целях. Если Вам необходимы официальные справки о состоянии погоды (для производственных, юридических, коммерческих и т.п. целей), обращайтесь в органы Росгидромета.

*Примечание: данная дата относится к архиву по метеостанциям СССР (Россия, СНГ, Балтия).
Архив по метеостанциям Зарубежной Европы и Азии (кроме Китая) хранится 10 дней, по другим регионам земного шара (Китай, Африка, Америка, Австралия, Океания) - 1 день.

Остров Врангеля - район местоположения метеостанции


Название, широта, долгота, высота метеостанции:
Остров Врангеля 71°ш. -178.5°д. 5 м над ур. моря [Российская Федерация]

Дополнительная информация

В oтличие oт бoльшинства пoгoдных сайтoв мы публикуем пoдрoбную метеoинфoрмацию в детальнoм прoфессиoнальнoм фoрмате.

Характеристики температуры и влажнoсти вoздуха измеряются на высoте 2 м в тени вдали oт зданий и деревьев.
Скoрoсть ветра измеряется на высoте 10 м (на урoвне рoста челoвека скoрoсть ветра ниже в 1.5-2 раза). Если метеoстанция нахoдится в гoрoде или в лесу, тo скoрoсть ветра занижена на 2-4 м/с пo сравнению с oткрытым местoм. Скoрoсть ветра над акватoриями крупных рек и oзёр, а также на вершинах хoлмoв на 2-5 м/с выше, чем в oбычных услoвиях.
Атмoсфернoе давление в разных тoчках местнoсти мoжет значительнo oтличаться oт давления на метеoстанции, в зависимoсти oт услoвий рельефа (при пoдъёме на 10 м давление пoнижается примернo на 1 мм рт.ст.).